Location: La Oliva
(42.2466°N, 2.9955°E)
Time: 06:34:36
(UTC+00:00)

Cosmos 1954 Rocket - Pass Details

Date: 22 April 2021
Orbit: 752 x 781 km, 74.0° (Epoch: 07 May)

Event Time Altitude Azimuth Distance (km) Brightness Sun altitude
Exits shadow 20:19:29 20° 170° (S) 1,666 5.3 -17.6°
Maximum altitude 20:22:45 49° 104° (ESE) 965 4.1 -18.1°
Drops below altitude 10° 20:27:43 10° 30° (NNE) 2,283 6.5 -18.8°
Sets 20:30:08 0° 26° (NNE) 3,214 7.4 -19.1°
